Weather History for Hebron, NE

Change the Weather History Date:

Friday, March 8, 2013

  Actual Average Record
Temperature  
Mean Temperature 48 °F -  
Max Temperature 64 °F 48 °F 74 °F (1955)
Min Temperature 31 °F 23 °F 1 °F (1967)
Degree Days  
Heating Degree Days 18    
Moisture  
Dew Point 36 °F    
Average Humidity 68    
Maximum Humidity 88    
Minimum Humidity 44    
Precipitation  
Precipitation 0.00 in - - ()
Sea Level Pressure  
Sea Level Pressure 29.99 in    
Wind  
Wind Speed 9 mph (SE)    
Max Wind Speed 23 mph    
Max Gust Speed 28 mph    
Visibility 9 miles    
Events Rain    
Averages and records for this station are not official NWS values.
T = Trace of Precipitation, MM = Missing Value Source: NWS Daily Summary

Daily Weather History Graph

Daily Weather History Graph

Search for Another Location

Airport:

Trip Planner

Search our weather history database for the weather conditions in past years. The results will help you decide how hot, cold, wet, or windy it might be!

Date:

Astronomy

Mar. 08, 2013 Rise Set
Actual Time 6:52 AM CST 6:30 PM CST
Civil Twilight 6:25 AM CST 6:57 PM CST
Nautical Twilight 5:54 AM CST 7:28 PM CST
Astronomical Twilight 5:22 AM CST 8:00 PM CST
Moon 4:38 AM CST (3/8) 3:26 PM CST (3/8)
Length of Visible Light 12h 31m
Length of Day
11h 37m
Waning Crescent, 11% of the Moon is Illuminated
Mar 8
Waning Crescent
Mar 11
New
Mar 19
First Quarter
Mar 27
Full
Apr 2
Last Quarter

Hourly Weather History & Observations

Time (CST) Temp. Windchill Dew Point Humidity Pressure Visibility Wind Dir Wind Speed Gust Speed Precip Events Conditions
12:15 AM 35.8 °F 30.9 °F 29.3 °F 77% 30.10 in 10.0 mi East 5.8 mph - N/A   Clear
12:35 AM 35.4 °F 29.7 °F 28.9 °F 77% 30.10 in 10.0 mi East 6.9 mph - N/A   Clear
12:55 AM 34.7 °F 29.6 °F 28.4 °F 78% 30.10 in 7.0 mi East 5.8 mph - N/A   Clear
1:15 AM 34.0 °F 28.8 °F 28.2 °F 79% 30.10 in 7.0 mi East 5.8 mph - N/A   Clear
1:35 AM 32.9 °F 27.5 °F 27.9 °F 82% 30.10 in 7.0 mi East 5.8 mph - N/A   Clear
1:55 AM 32.4 °F 27.9 °F 27.5 °F 82% 30.10 in 7.0 mi East 4.6 mph - N/A   Clear
2:15 AM 32.0 °F 26.4 °F 27.3 °F 83% 30.10 in 7.0 mi ESE 5.8 mph - N/A   Clear
2:35 AM 32.2 °F 26.7 °F 27.5 °F 83% 30.09 in 7.0 mi ESE 5.8 mph - N/A   Clear
2:55 AM 32.0 °F 26.4 °F 27.3 °F 83% 30.09 in 7.0 mi East 5.8 mph - N/A   Clear
3:15 AM 32.0 °F 26.4 °F 27.1 °F 82% 30.08 in 7.0 mi East 5.8 mph - N/A   Clear
3:35 AM 32.0 °F 26.4 °F 27.1 °F 82% 30.07 in 7.0 mi East 5.8 mph - N/A   Clear
3:55 AM 31.6 °F 26.0 °F 26.6 °F 82% 30.06 in 7.0 mi East 5.8 mph - N/A   Clear
4:15 AM 32.0 °F 27.5 °F 26.6 °F 80% 30.06 in 7.0 mi East 4.6 mph - N/A   Clear
4:35 AM 32.0 °F 26.4 °F 27.1 °F 82% 30.06 in 7.0 mi East 5.8 mph - N/A   Clear
4:55 AM 31.8 °F 26.2 °F 26.8 °F 82% 30.06 in 7.0 mi East 5.8 mph - N/A   Clear
5:15 AM 31.6 °F 27.0 °F 27.0 °F 83% 30.06 in 7.0 mi East 4.6 mph - N/A   Clear
5:35 AM 31.3 °F - 26.4 °F 82% 30.07 in 7.0 mi Calm Calm - N/A   Clear
5:55 AM 31.5 °F 25.8 °F 26.8 °F 83% 30.06 in 7.0 mi ESE 5.8 mph - N/A   Clear
6:15 AM 31.6 °F 25.1 °F 26.8 °F 82% 30.06 in 7.0 mi East 6.9 mph - N/A   Clear
6:35 AM 31.6 °F 25.1 °F 27.1 °F 83% 30.06 in 7.0 mi ESE 6.9 mph - N/A   Clear
6:55 AM 31.8 °F 25.4 °F 27.1 °F 83% 30.05 in 7.0 mi East 6.9 mph - N/A   Clear
7:15 AM 32.0 °F 27.5 °F 27.5 °F 83% 30.05 in 5.0 mi ESE 4.6 mph - N/A   Haze
7:35 AM 32.9 °F 28.5 °F 28.2 °F 83% 30.05 in 7.0 mi ESE 4.6 mph - N/A   Clear
7:55 AM 34.5 °F 29.4 °F 29.3 °F 81% 30.05 in 7.0 mi ESE 5.8 mph - N/A   Clear
8:15 AM 36.9 °F 31.4 °F 30.6 °F 78% 30.06 in 7.0 mi ESE 6.9 mph - N/A   Clear
8:35 AM 38.5 °F 33.4 °F 30.7 °F 74% 30.06 in 10.0 mi ESE 6.9 mph - N/A   Clear
8:55 AM 40.6 °F 35.4 °F 32.0 °F 71% 30.06 in 10.0 mi SE 8.1 mph - N/A   Clear
9:15 AM 40.6 °F 36.7 °F 31.5 °F 70% 30.06 in 10.0 mi ESE 5.8 mph - N/A   Clear
9:35 AM 42.6 °F 39.0 °F 32.0 °F 66% 30.07 in 10.0 mi SE 5.8 mph - N/A   Clear
9:55 AM 45.7 °F 41.0 °F 32.2 °F 59% 30.07 in 10.0 mi SSE 9.2 mph - N/A   Clear
10:15 AM 47.8 °F - 32.7 °F 56% 30.06 in 10.0 mi SSE 11.5 mph - N/A   Clear
10:35 AM 50.0 °F - 33.1 °F 52% 30.05 in 10.0 mi SSE 10.4 mph - N/A   Clear
10:55 AM 50.4 °F - 33.6 °F 53% 30.05 in 10.0 mi SSE 9.2 mph - N/A   Clear
11:15 AM 52.0 °F - 33.8 °F 50% 30.05 in 10.0 mi South 12.7 mph 21.9 mph N/A   Clear
11:35 AM 52.9 °F - 34.5 °F 50% 30.03 in 10.0 mi SSE 12.7 mph - N/A   Clear
11:55 AM 52.9 °F - 34.9 °F 50% 30.02 in 10.0 mi SSE 9.2 mph - N/A   Clear
12:15 PM 54.0 °F - 35.2 °F 49% 30.01 in 10.0 mi SE 12.7 mph 18.4 mph N/A   Clear
12:35 PM 54.9 °F - 35.8 °F 49% 30.02 in 10.0 mi SSE 15.0 mph - N/A   Clear
12:55 PM 56.3 °F - 36.5 °F 47% 30.01 in 10.0 mi SSE 13.8 mph - N/A   Clear
1:15 PM 57.4 °F - 36.9 °F 46% 29.99 in 10.0 mi SE 12.7 mph 16.1 mph N/A   Clear
1:35 PM 58.6 °F - 37.4 °F 45% 29.98 in 10.0 mi ESE 10.4 mph - N/A   Clear
1:55 PM 60.1 °F - 37.9 °F 44% 29.96 in 10.0 mi SE 9.2 mph - N/A   Clear
2:15 PM 61.7 °F - 40.6 °F 46% 29.94 in 10.0 mi SE 17.3 mph 21.9 mph N/A   Clear
2:35 PM 62.6 °F - 40.8 °F 45% 29.93 in 10.0 mi SE 17.3 mph - N/A   Mostly Cloudy
2:55 PM 63.5 °F - 41.5 °F 45% 29.92 in 10.0 mi SE 15.0 mph 20.7 mph N/A   Mostly Cloudy
3:15 PM 63.9 °F - 44.1 °F 49% 29.91 in 10.0 mi SE 23.0 mph 27.6 mph N/A   Mostly Cloudy
3:35 PM 64.2 °F - 43.9 °F 48% 29.90 in 10.0 mi SSE 19.6 mph 27.6 mph N/A   Overcast
3:55 PM 62.4 °F - 43.9 °F 51% 29.90 in 10.0 mi SSE 19.6 mph 25.3 mph N/A   Mostly Cloudy
4:15 PM 62.8 °F - 44.6 °F 51% 29.89 in 10.0 mi SE 21.9 mph 26.5 mph N/A   Mostly Cloudy
4:35 PM 61.7 °F - 45.9 °F 56% 29.89 in 10.0 mi SSE 18.4 mph 25.3 mph N/A   Mostly Cloudy
4:55 PM 60.8 °F - 44.6 °F 55% 29.89 in 10.0 mi SSE 18.4 mph 23.0 mph N/A   Overcast
5:15 PM 60.3 °F - 44.6 °F 56% 29.89 in 10.0 mi SSE 18.4 mph - N/A   Overcast
5:35 PM 59.9 °F - 43.7 °F 55% 29.89 in 10.0 mi SE 18.4 mph 26.5 mph N/A   Overcast
5:55 PM 59.0 °F - 43.7 °F 57% 29.88 in 10.0 mi SE 17.3 mph 24.2 mph N/A   Overcast
6:15 PM 58.5 °F - 43.3 °F 57% 29.88 in 10.0 mi SE 17.3 mph 24.2 mph N/A   Overcast
6:35 PM 58.1 °F - 43.7 °F 59% 29.88 in 10.0 mi SE 15.0 mph 20.7 mph N/A   Overcast
6:55 PM 57.4 °F - 43.9 °F 61% 29.88 in 10.0 mi SE 11.5 mph - N/A   Overcast
7:15 PM 57.2 °F - 44.1 °F 62% 29.88 in 10.0 mi SSE 15.0 mph - N/A   Overcast
7:35 PM 57.0 °F - 44.2 °F 62% 29.88 in 10.0 mi SE 12.7 mph - N/A   Overcast
7:55 PM 56.7 °F - 44.6 °F 64% 29.87 in 10.0 mi SE 13.8 mph - N/A   Overcast
8:15 PM 56.5 °F - 45.5 °F 67% 29.87 in 10.0 mi SE 13.8 mph 18.4 mph N/A Rain Light Rain
8:35 PM 54.7 °F - 47.3 °F 76% 29.88 in 10.0 mi SSE 15.0 mph 19.6 mph N/A Rain Rain
8:55 PM 54.0 °F - 47.5 °F 79% 29.88 in 10.0 mi SSE 13.8 mph - N/A   Overcast
9:15 PM 53.2 °F - 46.4 °F 78% 29.88 in 10.0 mi SSE 17.3 mph - N/A Rain Light Rain
9:35 PM 52.7 °F - 45.9 °F 78% 29.89 in 10.0 mi SSE 13.8 mph 21.9 mph N/A   Overcast
9:55 PM 52.2 °F - 46.0 °F 80% 29.89 in 10.0 mi SE 13.8 mph 24.2 mph N/A   Overcast
10:15 PM 51.3 °F - 46.4 °F 83% 29.89 in 7.0 mi SSE 13.8 mph 19.6 mph N/A   Overcast
10:35 PM 50.9 °F - 46.4 °F 85% 29.89 in 5.0 mi SSE 11.5 mph 19.6 mph N/A Rain Rain
10:55 PM 50.4 °F - 46.4 °F 86% 29.89 in 4.0 mi SSE 8.1 mph - N/A   Overcast
11:15 PM 49.8 °F - 46.4 °F 88% 29.88 in 4.0 mi SSE 8.1 mph - N/A   Overcast
11:35 PM 49.5 °F - 46.0 °F 88% 29.86 in 5.0 mi SE 6.9 mph - N/A   Overcast
11:55 PM 49.6 °F - 45.7 °F 86% 29.84 in 7.0 mi SE 8.1 mph - N/A   Overcast